Location: Alpine
(43.1636°N, 111.0180°W)
Time: 04:18:35
(UTC+00:00)

Tiros 1 despin weight - Pass Details

Date: 31 May 2022
Orbit: 591 x 639 km, 48.2° (Epoch: 30 June)

Event Time Altitude Azimuth Distance (km) Brightness Sun altitude
Rises 00:57:09 0° 257° (WSW) 2,887 ? 19.1°
Reaches altitude 10° 00:59:30 10° 261° (W) 1,974 ? 18.7°
Maximum altitude 01:04:00 62° 342° (NNW) 689 ? 17.9°
Drops below altitude 10° 01:08:26 10° 64° (ENE) 1,948 ? 17.1°
Sets 01:10:44 0° 67° (ENE) 2,845 ? 16.7°
